Regional Weather Roundup
Issued by NWS

Home | Current Version | Previous Version | Graphics & Text | Print | Product List | Glossary On
Versions: 1 2 3 4 5 6 7 8 9 10 11 12 13 14 15 16 17 18 19 20 21 22 23 24 25 26 27 28 29 30 31 32 33 34 35 36 37 38 39 40 41 42 43 44 45 46 47 48 49 50
162
ASUS45 KABQ 240601
RWRNM
NEW MEXICO REGIONAL WEATHER ROUNDUP
NATIONAL WEATHER SERVICE ALBUQUERQUE NM
1100 PM MST MON JAN 23 2017

NOTE: "FAIR" MEANS FEW OR NO CLOUDS BELOW 12,000 FEET AGL WITH NO
       SIGNIFICANT WEATHER OR OBSTRUCTIONS TO VISION.

      THIS PRODUCT IS RELEASED AS TWO VERSIONS.  ONE VERSION NEAR
      THE TOP OF THE HOUR CONTAINING PRELIMINARY DATA FROM ALBUQUERQUE
      AND OTHER STATIONS.  A FINAL VERSION WITH ADDITIONAL DATA IS
      ISSUED ABOUT 10 MINUTES AFTER THE HOUR.

NMZ501-503-504-510>518-240700-
NORTHWEST PLATEAU/NORTHCENTRAL MOUNTAINS

CITY           SKY/WX    TMP DP  RH WIND       PRES   REMARKS
FARMINGTON     LGT SNOW  30  30 100 SE5       29.65S FOG     WCI  25
6HR MIN TEMP:  30; 6HR MAX TEMP:  42; 6HR PCP:  0.13;

LOS ALAMOS     LGT SNOW  33  33 100 W15G24    29.65R VSB 1   WCI  23
SANTA FE       LGT RAIN  42  30  62 W25G39    29.61R
6HR MIN TEMP:  42; 6HR MAX TEMP:  51; 6HR PCP: TRACE;

TAOS           CLOUDY    32  25  74 W15G23    29.61R WCI  22
ANGEL FIRE     LGT SNOW  30  28  95 S9        29.57F VSB 1   WCI  21

$$
NMZ402-403-502-505>509-240700-
WESTCENTRAL MOUNTAINS/SOUTHWEST MOUNTAINS

CITY           SKY/WX    TMP DP  RH WIND       PRES   REMARKS
GALLUP         LGT SNOW  30  28  92 SW9       29.66S FOG     WCI  22
6HR MIN TEMP:  30; 6HR MAX TEMP:  41; 6HR PCP:  0.09;

GRANTS         LGT SNOW  32  32  99 NE5       29.68F WCI  28
SILVER CITY    FAIR      46  31  56 SW18G26   29.74S

$$
NMZ407-409-411-412-240700-
SOUTHERN DESERTS

CITY           SKY/WX    TMP DP  RH WIND       PRES   REMARKS
DEMING         FAIR      50  32  50 W15       29.72F
6HR MIN TEMP:  49; 6HR MAX TEMP:  63;

LAS CRUCES     FAIR      54  31  42 SW18G24   29.73F
ALAMOGORDO     FAIR      55  30  38 S21       29.72S
T OR C         FAIR      50  32  50 S16G22    29.65F
6HR MIN TEMP:  49; 6HR MAX TEMP:  58;


$$
NMZ519>523-240700-
CENTRAL VALLEYS/CENTRAL HIGHLANDS

CITY           SKY/WX    TMP DP  RH WIND       PRES   REMARKS
ALBUQUERQUE    MOCLDY    45  29  53 SW8       29.64R
6HR MIN TEMP:  44; 6HR MAX TEMP:  57;

DOUBLE EAGLE   CLOUDY    40  33  76 W28G36    29.66R WCI  29
MORIARTY ARPT  CLOUDY    44  24  43 SW18G28   29.63F
6HR MIN TEMP:  36; 6HR MAX TEMP:  52;

CLINES CORNERS CLOUDY    39  28  64 SW26G35   29.64F WCI  28
6HR MIN TEMP:  37; 6HR MAX TEMP:  46;

BELEN          FAIR      49  25  38 SW22G30   29.63F
6HR MIN TEMP:  46; 6HR MAX TEMP:  56;

SOCORRO        MOCLDY    45  31  56 S12G17    29.64F
6HR MIN TEMP:  42; 6HR MAX TEMP:  57;


$$
NMZ524>526-539-540-240700-
SOUTHCENTRAL MOUNTAINS

CITY           SKY/WX    TMP DP  RH WIND       PRES   REMARKS
RUIDOSO        NOT AVBL

$$
NMZ527>531-240700-
NORTHEAST HIGHLANDS/NORTHEAST PLAINS

CITY           SKY/WX    TMP DP  RH WIND       PRES   REMARKS
LAS VEGAS      CLOUDY    41  28  60 SW33G45   29.57F
6HR MIN TEMP:  39; 6HR MAX TEMP:  46; 6HR PCP: TRACE;

RATON          CLOUDY    31  24  75 SW3       29.53F
6HR MIN TEMP:  31; 6HR MAX TEMP:  45;

CLAYTON        FAIR      40  33  76 S15       29.56F WCI  32
6HR MIN TEMP:  40; 6HR MAX TEMP:  53;


$$
NMZ532>537-240700-
EASTCENTRAL PLAINS

CITY           SKY/WX    TMP DP  RH WIND       PRES   REMARKS
TUCUMCARI      FAIR      47  28  47 SW14      29.57F
6HR MIN TEMP:  46; 6HR MAX TEMP:  62;

CANNON AFB     FAIR      43  27  53 SW8       29.64F
6HR MIN TEMP:  40; 6HR MAX TEMP:  63;

CLOVIS AIRPORT FAIR      39  27  60 SW9       29.64F WCI  33

$$
NMZ028-029-538-240700-
SOUTHEAST PLAINS

CITY           SKY/WX    TMP DP  RH WIND       PRES   REMARKS
ROSWELL        FAIR      53  25  33 SW17      29.65F
6HR MIN TEMP:  45; 6HR MAX TEMP:  67;

ARTESIA        FAIR      50  27  40 SW13      29.69F
CARLSBAD       FAIR      47  29  49 SW12      29.68F
6HR MIN TEMP:  46; 6HR MAX TEMP:  68;



$$




USA.gov is the U.S. government's official web portal to all federal, state and local government web resources and services.